Temperature
21 21 20 20 19 19 18 17 17 16 15 14 13 12 12 12 12 11 11 11 10 10 10 10 10 9 9 9 9 9 9 9 9 9 9 9 9 8 8 8 7 7 7
20 20 20 20 20 19 18 18 17 16 15 15 14 14 13 12 12 11 11 11 10 10 10 10 10 10 9 9 9 9 9 9 9 9 8 8 8 8 8 7 7 7 7
20 20 20 20 20 19 19 18 17 16 16 15 14 13 12 11 11 11 11 11 11 10 10 10 10 10 10 10 9 9 9 9 9 8 8 8 8 8 7 7 7 7 6
20 20 20 20 20 19 19 18 17 17 16 15 14 13 12 12 12 12 11 11 11 11 10 10 10 10 10 10 9 9 9 9 9 8 8 8 7 7 7 7 7 6 6
20 20 20 20 20 19 18 18 17 16 16 15 14 14 13 13 12 12 11 11 11 10 10 10 10 10 10 10 9 9 9 9 9 8 8 8 7 7 6 6 7 7 7
20 20 19 19 19 18 18 17 17 16 15 15 14 14 13 12 12 11 11 11 11 10 10 10 10 10 10 10 9 9 9 9 9 8 8 7 7 6 6 5 6 6 7
19 19 19 19 18 18 17 17 16 16 15 14 14 13 13 12 12 12 11 11 11 10 10 10 10 10 10 9 9 9 9 9 9 8 8 7 7 6 6 5 5 5 6
19 19 19 19 18 18 17 17 16 16 15 14 14 13 13 12 12 11 11 11 11 11 10 10 10 10 9 9 9 9 9 9 8 8 8 7 7 6 6 5 4 4 4
18 18 18 18 18 17 17 16 16 15 15 14 14 13 13 12 12 11 11 11 11 10 10 10 10 9 9 9 9 9 9 8 8 8 7 7 7 6 5 5 4 3 2
18 18 18 18 17 17 17 16 16 15 15 14 14 13 13 12 11 11 11 10 10 10 10 10 10 9 9 9 9 9 8 8 8 8 7 7 6 6 5 5 4 3 2
18 18 18 17 17 16 16 16 15 15 15 14 13 13 12 12 11 11 11 10 10 10 10 10 9 9 9 9 9 8 8 8 8 7 7 7 6 6 5 5 4 3 2
18 18 18 17 16 16 16 15 15 15 14 14 13 13 12 11 11 11 10 10 10 10 9 9 9 9 9 9 8 8 8 8 7 7 7 6 6 5 5 4 4 3 3
18 17 17 17 17 16 16 15 15 15 14 13 13 12 11 11 11 11 10 10 10 9 9 9 9 9 9 8 8 8 8 7 7 7 6 6 5 5 4 4 3 3 2
18 17 17 17 16 16 16 15 15 14 14 13 12 12 11 11 11 10 10 10 9 9 9 9 9 8 8 8 8 7 7 7 7 6 6 5 5 4 4 3 3 2 2
17 17 17 17 16 16 15 15 14 14 13 12 12 12 11 11 10 10 10 9 9 9 9 8 8 8 8 8 7 7 7 6 6 6 5 5 4 4 3 2 2 1 1
17 17 17 17 16 16 16 15 14 14 13 12 12 11 11 10 10 10 9 9 9 9 8 8 8 8 7 7 7 6 6 6 5 5 5 4 3 3 2 2 1 1 0
17 17 17 17 17 16 16 15 15 13 13 12 12 11 10 10 10 9 9 9 8 8 8 8 7 7 7 7 6 6 5 5 5 4 4 3 3 2 2 1 1 0 -0
17 17 17 17 16 16 15 15 14 13 12 12 11 11 10 9 9 9 8 8 8 8 8 7 7 7 6 6 6 5 5 4 4 3 3 3 2 1 1 0 0 -0 -0
18 17 17 17 16 16 15 14 14 13 12 11 11 10 10 9 9 8 8 8 7 7 7 7 6 6 6 5 5 4 4 3 3 3 2 2 1 1 -0 -0 -1 -1 -1
17 17 16 16 15 15 14 14 13 12 12 11 11 10 9 9 8 8 7 7 7 7 6 6 6 5 5 5 4 3 3 3 2 2 1 1 0 -0 -1 -1 -2 -2 -2
16 16 16 15 15 14 14 13 12 12 11 11 10 9 9 8 8 7 7 6 6 6 5 5 5 5 4 4 3 3 2 2 1 1 1 0 -0 -1 -1 -2 -2 -3 -3
15 15 15 14 14 13 13 12 12 11 11 10 9 9 8 8 7 7 6 6 5 5 5 4 4 4 3 3 2 2 1 1 0 0 -0 -1 -1 -2 -2 -3 -3 -3 -4
15 14 14 14 13 12 12 12 11 10 10 9 9 8 8 7 7 6 6 5 5 4 4 4 3 3 3 2 2 1 1 0 -0 -1 -1 -2 -2 -3 -3 -3 -4 -4 -5
14 14 13 13 12 12 11 11 10 10 9 9 8 7 7 7 6 5 5 4 4 4 3 3 3 2 2 1 1 0 -0 -1 -1 -2 -2 -2 -3 -3 -4 -4 -4 -5 -5
13 13 12 12 11 11 10 10 9 9 8 8 7 7 6 6 5 5 4 4 3 3 2 2 2 1 1 1 -0 -1 -1 -2 -2 -3 -3 -3 -3 -4 -4 -5 -5 -6 -6
12 12 11 11 11 10 10 9 8 8 8 7 7 6 6 5 5 4 4 3 3 2 2 1 1 0 -0 -1 -1 -2 -2 -3 -3 -3 -4 -4 -4 -5 -5 -6 -6 -6 -7
Wind_Speed
14 11 12 12 12 14 16 18 18 18 16 14 13 12 11 10 9 10 15 17 17 17 14 8 8 7 5 5 4 3 2 1 0 2 3 4 4 3 2 2 2 2 2
11 9 9 10 13 15 17 18 19 19 18 16 14 10 9 7 8 8 12 17 17 17 14 10 7 7 5 5 5 4 3 1 1 2 1 3 4 3 3 2 1 1 3
13 11 10 11 12 15 17 17 19 18 18 15 10 7 5 4 5 8 9 11 16 16 14 13 10 8 7 6 6 5 5 3 1 2 3 2 3 3 4 3 2 2 2
11 10 10 11 13 15 14 15 17 17 16 16 15 15 12 10 10 8 8 9 13 15 15 14 12 9 7 7 6 6 4 5 3 1 1 2 4 2 3 4 3 4 3
11 11 11 12 12 12 12 13 14 15 15 17 18 17 12 9 6 7 9 9 9 12 14 14 12 9 7 7 7 6 5 4 5 4 2 1 1 2 3 4 4 4 4
9 9 8 8 8 8 10 11 14 14 15 16 17 17 15 12 11 10 11 9 7 7 10 12 11 9 8 8 7 7 7 6 5 4 4 4 3 3 4 5 5 5 4
8 7 8 8 9 10 11 12 14 14 14 16 16 16 16 16 16 13 13 11 8 7 10 9 9 8 8 9 8 7 7 7 6 6 4 4 4 4 4 4 4 4 4
8 8 9 9 10 11 11 12 13 12 14 15 15 14 14 13 11 13 11 12 10 10 10 10 10 10 10 9 8 6 6 6 7 7 6 4 5 4 4 4 3 3 3
9 9 8 9 9 10 12 13 14 12 13 14 13 12 13 13 12 11 10 10 8 8 10 11 10 9 10 9 8 6 7 7 7 7 7 5 4 4 5 4 4 4 4
9 8 8 8 8 9 9 10 11 12 11 12 12 11 12 12 11 11 12 11 10 9 10 10 10 10 9 9 8 7 6 7 6 5 6 6 4 4 4 5 5 5 6
10 9 8 8 8 7 8 9 10 9 10 11 11 11 11 11 11 12 12 11 10 11 12 12 11 11 10 9 9 8 8 8 7 6 7 8 6 5 5 4 4 5 5
9 8 8 7 7 8 9 10 10 10 10 10 10 10 10 10 11 11 11 11 12 11 12 11 11 10 10 10 10 9 9 9 9 8 7 8 6 6 5 5 6 6 6
8 7 7 8 9 9 9 9 10 10 9 9 10 9 10 10 11 11 10 11 11 11 10 11 11 11 10 10 10 10 9 9 9 9 9 8 7 8 6 7 7 6 6
9 8 8 8 9 9 9 9 9 9 9 9 10 10 11 10 10 9 10 10 11 11 11 11 10 10 9 9 9 9 8 8 8 8 9 9 9 9 8 7 8 7 6
9 10 10 9 9 8 8 9 8 8 9 10 10 10 9 8 8 8 9 9 10 10 10 9 9 8 8 8 9 9 9 8 8 8 8 8 10 11 9 7 7 6 6
11 11 11 10 10 10 10 9 9 9 9 10 10 8 8 8 8 9 9 9 8 8 8 9 9 8 8 10 13 10 8 8 8 8 8 8 9 12 14 15 14 10 8
12 12 12 12 11 11 11 11 10 9 9 9 8 8 9 8 8 8 8 8 8 7 8 8 7 8 8 11 12 12 7 7 8 8 7 7 7 10 7 11 15 14 16
12 11 10 10 9 8 8 8 8 9 9 8 8 8 8 8 7 8 8 7 6 7 7 7 7 6 7 9 10 10 6 6 7 7 8 8 7 7 8 7 8 9 10
11 11 10 9 8 8 9 9 8 8 8 9 8 8 9 8 8 8 7 6 5 5 5 5 6 6 6 8 9 8 5 5 7 6 6 7 7 12 13 8 8 9 9
8 8 7 7 7 7 9 10 9 9 9 9 8 8 8 9 8 8 6 5 5 5 5 4 5 6 6 7 9 8 4 5 5 5 6 10 11 13 14 9 8 10 10
8 8 9 8 7 8 10 10 9 9 8 7 7 7 7 7 7 6 5 5 4 4 4 4 3 4 5 6 8 9 5 6 5 5 5 7 13 14 15 13 8 12 11
8 9 9 7 6 8 10 9 8 7 7 7 7 6 6 5 5 6 5 5 5 4 3 3 3 3 4 5 7 9 8 7 5 6 6 7 12 14 15 12 13 16 13
9 8 10 8 6 6 9 9 7 7 8 8 7 6 6 5 5 6 6 4 4 4 3 3 3 3 3 4 7 9 9 9 6 6 9 11 13 12 9 12 14 12 6
8 8 10 10 7 6 7 7 7 8 9 8 7 6 6 5 4 4 4 4 4 4 3 3 4 3 3 4 4 4 5 7 7 6 9 12 11 8 8 9 7 5 5
7 8 10 10 8 7 7 7 8 9 9 8 6 6 5 5 4 3 3 4 4 5 5 5 4 4 5 6 7 5 4 4 5 4 3 2 3 3 4 4 5 4 4
9 9 9 9 8 8 7 6 7 9 9 7 6 5 4 4 3 3 1 1 1 2 3 3 3 4 6 7 8 9 9 10 9 5 3 4 4 5 5 5 5 4 5
Wind_Direction
242 229 214 204 196 192 189 188 186 184 179 181 182 184 190 189 190 193 192 191 190 188 184 179 177 174 175 181 176 158 152 174 71 41 347 338 352 20 23 32 53 50 47
244 229 209 196 191 190 189 188 187 184 183 186 186 187 181 183 188 188 190 191 188 187 186 179 179 177 173 175 176 163 153 158 114 121 68 351 343 343 357 356 17 18 29
230 223 209 200 192 192 190 190 189 186 185 179 170 155 145 146 174 190 193 192 189 187 185 183 177 178 178 184 185 174 165 175 178 143 146 150 245 301 321 335 346 343 348
221 215 207 201 197 197 191 188 187 185 183 176 176 175 182 189 192 187 188 187 188 186 185 181 179 180 181 182 185 178 169 159 176 181 163 171 166 186 301 312 316 322 309
216 215 211 204 199 191 186 185 182 183 181 181 182 184 189 187 171 170 179 186 187 186 183 180 179 181 183 183 178 173 172 171 174 176 169 160 145 168 194 275 302 311 284
217 218 212 196 191 183 179 178 178 183 182 183 184 188 186 177 171 178 185 188 188 188 185 181 181 182 181 183 184 181 177 181 178 179 175 171 176 194 193 233 269 289 285
205 204 198 192 187 182 180 179 179 183 183 185 188 190 187 183 185 185 188 186 187 193 192 184 184 184 185 185 180 180 185 184 184 189 195 194 196 179 179 202 245 272 291
204 205 204 195 190 186 182 180 182 183 184 187 190 189 186 188 192 190 188 191 195 195 187 186 187 186 184 184 181 185 190 187 192 198 196 200 207 191 186 187 197 269 291
206 207 203 196 190 187 187 185 184 184 187 189 187 187 188 190 190 187 187 191 191 186 184 185 187 187 185 184 181 191 194 190 199 202 203 206 211 204 203 195 186 195 256
210 208 203 198 193 190 187 184 185 187 186 187 188 190 191 191 187 185 190 191 187 182 182 186 188 188 189 187 186 192 194 194 204 202 205 215 217 213 209 207 204 200 211
207 206 204 198 189 181 180 184 187 187 188 189 189 189 190 187 186 190 193 190 187 184 186 188 189 190 192 190 192 198 194 201 210 209 211 222 216 217 220 215 213 214 208
203 199 194 186 184 187 188 188 190 192 193 188 186 189 186 184 188 192 191 187 187 188 188 187 190 193 194 193 196 201 201 204 211 216 215 225 221 225 226 223 227 228 220
196 194 189 189 192 194 193 193 193 194 189 183 185 187 187 188 193 193 188 186 187 187 188 188 193 197 197 197 201 203 206 210 215 214 216 223 220 232 235 233 236 238 240
195 194 198 200 198 195 194 195 197 191 184 183 187 191 193 193 192 188 185 185 185 186 190 193 197 198 197 200 203 204 209 215 219 219 220 222 221 230 236 240 240 241 244
205 203 202 202 198 196 197 196 195 189 182 183 190 196 191 186 181 181 182 182 185 188 188 190 195 195 197 204 202 205 209 214 223 227 228 230 233 238 243 248 246 241 247
210 207 204 199 199 199 197 194 193 187 180 186 192 187 179 178 179 180 178 178 182 183 182 190 193 197 207 212 211 209 211 215 221 231 237 241 245 252 260 266 267 260 253
207 205 202 201 201 199 193 193 190 176 177 185 184 179 176 178 179 175 174 180 183 181 188 194 195 205 215 215 217 217 212 217 224 229 236 247 248 256 253 266 273 273 271
203 202 200 199 199 190 183 176 165 166 173 177 176 173 171 173 170 169 177 180 179 185 191 197 200 207 220 219 222 220 213 221 230 232 234 240 249 251 256 253 258 259 263
199 198 195 191 181 176 170 157 159 163 169 176 177 175 171 169 169 175 180 176 175 185 191 192 195 205 222 222 223 218 209 225 237 239 237 242 248 262 269 266 263 269 269
185 182 172 163 163 167 154 152 160 164 177 181 176 168 166 168 174 178 174 166 172 182 181 191 197 204 220 229 231 225 212 228 240 243 243 251 259 267 271 263 259 267 270
172 163 152 156 167 155 147 154 160 177 180 162 151 153 160 165 166 160 156 156 159 162 176 195 211 215 225 234 236 236 224 225 237 245 247 251 267 273 275 274 263 269 279
158 151 145 148 149 147 148 153 169 170 144 137 140 147 151 149 144 145 148 150 153 163 181 196 229 235 235 235 241 243 246 250 239 245 246 253 271 276 279 280 279 285 291
156 149 144 139 133 143 149 155 162 140 132 132 138 141 137 136 141 148 151 150 156 169 189 198 226 247 243 245 251 254 257 259 254 253 266 274 278 282 281 282 288 292 287
150 144 139 139 140 140 140 147 140 135 133 137 139 139 138 136 135 142 151 159 172 182 195 210 229 245 253 252 249 247 255 263 266 269 273 281 286 285 284 288 290 280 270
143 143 145 146 146 138 132 132 135 135 133 135 136 135 136 141 143 146 165 176 193 192 198 212 211 224 247 254 261 262 250 246 253 273 268 269 274 269 269 272 271 266 272
139 136 137 138 138 135 133 134 137 137 137 137 139 140 140 140 141 140 93 9 233 239 238 242 242 248 266 284 280 280 282 285 285 287 266 262 259 259 262 267 269 265 264
Height
1476 1478 1480 1483 1485 1487 1489 1492 1495 1499 1503 1506 1510 1513 1516 1520 1523 1526 1529 1532 1534 1536 1538 1540 1541 1542 1543 1544 1544 1544 1544 1543 1543 1542 1541 1540 1539 1538 1538 1537 1536 1535 1534
1469 1471 1474 1476 1478 1480 1483 1486 1489 1493 1496 1500 1504 1508 1512 1516 1519 1523 1525 1528 1531 1533 1535 1536 1538 1539 1540 1541 1541 1542 1541 1541 1541 1540 1539 1538 1538 1536 1536 1535 1534 1533 1532
1462 1464 1466 1469 1472 1474 1477 1480 1483 1487 1491 1496 1501 1505 1509 1513 1515 1518 1520 1524 1526 1529 1531 1533 1535 1536 1537 1538 1538 1539 1539 1538 1538 1538 1538 1537 1535 1535 1533 1533 1532 1531 1530
1456 1458 1460 1462 1465 1468 1471 1475 1478 1482 1486 1491 1494 1498 1501 1504 1507 1511 1516 1519 1522 1525 1527 1529 1531 1532 1534 1534 1535 1536 1536 1536 1535 1535 1535 1535 1534 1533 1531 1530 1529 1528 1527
1451 1452 1454 1457 1460 1463 1466 1470 1473 1477 1481 1485 1489 1492 1496 1500 1504 1508 1512 1515 1518 1521 1523 1525 1527 1528 1530 1531 1532 1532 1533 1533 1532 1532 1531 1531 1530 1530 1529 1526 1525 1524 1523
1446 1448 1450 1452 1455 1458 1461 1465 1468 1472 1476 1480 1484 1487 1491 1495 1499 1503 1506 1510 1513 1516 1518 1521 1523 1524 1526 1527 1528 1529 1529 1529 1529 1529 1528 1527 1527 1526 1525 1523 1521 1519 1518
1442 1444 1445 1447 1450 1453 1456 1460 1463 1467 1471 1475 1479 1482 1486 1490 1494 1497 1501 1505 1508 1510 1513 1516 1518 1520 1522 1523 1524 1525 1525 1525 1525 1525 1524 1524 1523 1522 1521 1520 1517 1515 1513
1438 1440 1442 1444 1446 1449 1452 1455 1459 1462 1466 1470 1474 1478 1482 1485 1489 1493 1496 1500 1502 1506 1509 1511 1514 1516 1517 1519 1520 1521 1521 1521 1521 1521 1520 1520 1519 1518 1517 1516 1514 1511 1508
1435 1437 1439 1441 1443 1445 1448 1451 1454 1458 1462 1466 1470 1473 1477 1480 1484 1488 1492 1495 1498 1502 1504 1507 1509 1511 1513 1514 1515 1516 1516 1517 1517 1517 1516 1515 1515 1514 1513 1511 1510 1509 1504
1432 1434 1436 1438 1440 1442 1445 1448 1451 1454 1458 1462 1465 1469 1472 1476 1480 1483 1487 1490 1493 1497 1500 1502 1504 1506 1508 1509 1510 1511 1512 1512 1512 1512 1511 1511 1510 1509 1508 1506 1505 1503 1500
1428 1430 1433 1435 1437 1439 1442 1444 1447 1450 1454 1457 1461 1464 1468 1471 1475 1478 1482 1485 1489 1492 1494 1497 1499 1501 1502 1504 1505 1506 1507 1507 1507 1507 1506 1505 1505 1503 1502 1501 1499 1497 1495
1425 1428 1430 1432 1434 1436 1438 1441 1444 1446 1450 1453 1456 1459 1463 1467 1470 1473 1477 1480 1483 1486 1489 1492 1494 1496 1497 1499 1500 1501 1501 1502 1501 1501 1501 1500 1499 1498 1497 1495 1493 1491 1489
1423 1425 1427 1429 1431 1433 1435 1437 1440 1443 1446 1449 1452 1455 1458 1462 1465 1468 1472 1475 1478 1481 1484 1486 1488 1490 1492 1493 1494 1495 1496 1496 1496 1496 1495 1494 1493 1491 1490 1489 1487 1485 1483
1420 1422 1424 1426 1428 1430 1432 1434 1436 1439 1442 1445 1447 1450 1453 1457 1460 1464 1467 1470 1473 1476 1478 1481 1483 1485 1487 1488 1489 1489 1490 1490 1490 1490 1489 1488 1487 1485 1484 1482 1480 1478 1476
1416 1418 1420 1422 1424 1426 1429 1431 1433 1435 1438 1440 1443 1446 1449 1453 1456 1459 1462 1465 1468 1471 1474 1476 1478 1479 1481 1482 1483 1483 1484 1484 1484 1483 1483 1482 1481 1479 1478 1476 1474 1472 1469
1412 1414 1416 1418 1420 1422 1424 1427 1429 1431 1434 1436 1438 1442 1445 1448 1451 1455 1458 1461 1463 1466 1468 1470 1472 1473 1474 1476 1477 1478 1478 1477 1477 1477 1476 1475 1474 1473 1471 1469 1468 1466 1463
1408 1410 1412 1414 1416 1418 1420 1422 1425 1427 1430 1432 1435 1438 1441 1444 1447 1450 1453 1456 1458 1461 1463 1464 1466 1467 1469 1470 1471 1471 1471 1471 1471 1470 1469 1468 1467 1466 1464 1462 1461 1459 1457
1403 1405 1408 1410 1412 1415 1417 1419 1422 1424 1426 1428 1431 1434 1437 1440 1443 1446 1449 1451 1454 1456 1457 1459 1460 1462 1463 1464 1465 1465 1465 1464 1464 1464 1463 1461 1460 1459 1457 1455 1452 1451 1449
1397 1400 1403 1406 1408 1410 1413 1415 1418 1420 1422 1425 1427 1430 1433 1436 1439 1441 1444 1446 1449 1450 1452 1453 1455 1456 1457 1458 1459 1459 1458 1457 1457 1457 1456 1455 1453 1452 1450 1448 1445 1442 1441
1393 1396 1398 1401 1404 1406 1409 1411 1413 1416 1418 1421 1424 1427 1429 1432 1434 1437 1439 1442 1444 1445 1447 1448 1449 1450 1451 1452 1453 1452 1451 1450 1450 1449 1449 1448 1446 1445 1443 1441 1437 1434 1432
1387 1391 1394 1396 1399 1402 1405 1407 1410 1412 1415 1418 1421 1423 1426 1428 1431 1433 1435 1437 1439 1440 1442 1443 1444 1445 1445 1446 1446 1446 1445 1444 1443 1442 1441 1440 1439 1437 1436 1434 1431 1428 1426
1382 1386 1389 1392 1396 1399 1401 1404 1406 1409 1412 1415 1417 1420 1422 1425 1427 1429 1431 1432 1434 1435 1436 1437 1438 1439 1439 1439 1439 1439 1438 1438 1436 1435 1434 1433 1432 1430 1428 1426 1424 1422 1420
1377 1381 1385 1388 1392 1395 1398 1401 1404 1406 1409 1411 1414 1416 1419 1421 1423 1425 1426 1428 1429 1430 1431 1432 1432 1433 1433 1433 1433 1433 1432 1431 1430 1428 1427 1426 1424 1422 1420 1419 1417 1415 1413
1373 1377 1381 1385 1389 1392 1396 1399 1401 1404 1406 1409 1411 1413 1415 1417 1419 1421 1422 1423 1424 1425 1426 1426 1427 1427 1427 1427 1427 1426 1426 1424 1423 1422 1420 1419 1417 1415 1413 1412 1410 1408 1406
1370 1374 1378 1382 1386 1390 1393 1396 1399 1401 1403 1406 1408 1410 1412 1414 1416 1417 1419 1419 1420 1421 1421 1421 1422 1421 1421 1421 1421 1420 1419 1418 1416 1415 1413 1411 1409 1408 1406 1404 1403 1401 1399
1368 1372 1376 1380 1384 1387 1391 1394 1396 1399 1401 1403 1405 1407 1409 1411 1412 1414 1415 1416 1417 1417 1417 1417 1417 1416 1416 1415 1415 1414 1412 1411 1410 1408 1405 1404 1402 1401 1399 1397 1396 1394 1393